| time (UTC) | temp F | wind direction | speed knots | gust knots | rain 1hr in | rain 24hr in | rain mn in | humidity % | barometer mb |
| 20260508203059 | 72 | 202 | 2.6 | 3.5 | 0.00 | 0.00 | 0.00 | 40 | 1013.5 |
| 20260508201538 | 71 | 255 | 0.0 | 2.6 | 0.00 | 0.00 | 0.00 | 43 | 1014.0 |
| 20260508200043 | 71 | 270 | 0.0 | 2.6 | 0.00 | 0.00 | 0.00 | 39 | 1014.5 |
| 20260508194533 | 71 | 216 | 0.0 | 1.7 | 0.00 | 0.00 | 0.00 | 38 | 1014.8 |
| 20260508193030 | 72 | 176 | 0.0 | 1.7 | 0.00 | 0.00 | 0.00 | 40 | 1014.9 |
| 20260508191528 | 70 | 105 | 0.0 | 0.9 | 0.00 | 0.00 | 0.00 | 41 | 1015.1 |
| 20260508190023 | 68 | 316 | 0.0 | 2.6 | 0.00 | 0.00 | 0.00 | 42 | 1015.6 |
| 20260508184525 | 69 | 186 | 0.9 | 3.5 | 0.00 | 0.00 | 0.00 | 43 | 1015.7 |
| 20260508183020 | 69 | 203 | 0.0 | 3.5 | 0.00 | 0.00 | 0.00 | 55 | 1015.7 |
| 20260508181519 | 68 | 4 | 0.0 | 2.6 | 0.00 | 0.00 | 0.00 | 49 | 1016.0 |
| 20260508180015 | 68 | 333 | 0.0 | 2.6 | 0.00 | 0.00 | 0.00 | 51 | 1016.0 |
| 20260508174514 | 67 | 266 | 1.7 | 3.5 | 0.00 | 0.00 | 0.00 | 50 | 1016.3 |
| 20260508173011 | 66 | 127 | 0.9 | 4.3 | 0.00 | 0.00 | 0.00 | 51 | 1016.8 |
| 20260508171511 | 65 | 89 | 0.0 | 3.5 | 0.00 | 0.00 | 0.00 | 61 | 1017.3 |
| 20260508170007 | 65 | 192 | 0.0 | 2.6 | 0.00 | 0.00 | 0.00 | 54 | 1017.5 |
| 20260508164511 | 64 | 278 | 0.0 | 4.3 | 0.00 | 0.00 | 0.00 | 57 | 1017.8 |
| 20260508163057 | 65 | 274 | 0.0 | 1.7 | 0.00 | 0.00 | 0.00 | 60 | 1018.0 |
| 20260508161548 | 62 | 270 | 0.0 | 1.7 | 0.00 | 0.00 | 0.00 | 63 | 1018.1 |
| 20260508160044 | 61 | 56 | 0.0 | 1.7 | 0.00 | 0.00 | 0.00 | 65 | 1018.5 |
| 20260508154543 | 61 | 276 | 0.0 | 3.5 | 0.00 | 0.02 | 0.00 | 68 | 1018.6 |
| 20260508153040 | 59 | 342 | 0.0 | 1.7 | 0.00 | 0.02 | 0.00 | 71 | 1018.7 |
| 20260508151536 | 58 | 347 | 0.0 | 0.9 | 0.00 | 0.02 | 0.00 | 74 | 1018.9 |
| 20260508150039 | 56 | 305 | 0.0 | 0.9 | 0.00 | 0.02 | 0.00 | 88 | 1019.1 |
| 20260508144526 | 54 | 236 | 0.0 | 0.9 | 0.00 | 0.02 | 0.00 | 92 | 1019.1 |
| 20260508143022 | 52 | 312 | 0.0 | 0.9 | 0.00 | 0.02 | 0.00 | 95 | 1019.0 |
| 20260508141520 | 50 | 248 | 0.0 | 0.0 | 0.00 | 0.02 | 0.00 | 95 | 1019.1 |
| 20260508140018 | 50 | 136 | 0.0 | 0.0 | 0.00 | 0.02 | 0.00 | 97 | 1019.1 |
| 20260508134516 | 48 | 103 | 0.0 | 0.0 | 0.00 | 0.03 | 0.00 | 97 | 1019.1 |
| 20260508133017 | 47 | 79 | 0.0 | 0.0 | 0.00 | 0.03 | 0.00 | 96 | 1019.2 |
| 20260508131517 | 46 | 8 | 0.0 | 0.0 | 0.00 | 0.03 | 0.00 | 97 | 1019.0 |
| 20260508130006 | 45 | 120 | 0.0 | 0.9 | 0.00 | 0.03 | 0.00 | 96 | 1019.1 |
| 20260508124505 | 44 | 6 | 0.0 | 0.9 | 0.00 | 0.04 | 0.00 | 96 | 1019.0 |
| 20260508123103 | 43 | 69 | 0.0 | 0.9 | 0.00 | 0.04 | 0.00 | 96 | 1018.9 |
| 20260508121530 | 43 | 69 | 0.0 | 0.9 | 0.00 | 0.04 | 0.00 | 96 | 1018.8 |
| 20260508120027 | 42 | 113 | 0.0 | 0.9 | 0.00 | 0.04 | 0.00 | 96 | 1018.6 |
| 20260508114527 | 41 | 124 | 0.0 | 0.0 | 0.00 | 0.04 | 0.00 | 96 | 1018.4 |
| 20260508113026 | 41 | 225 | 0.0 | 0.0 | 0.00 | 0.04 | 0.00 | 96 | 1018.4 |
| 20260508111524 | 40 | 229 | 0.0 | 0.0 | 0.00 | 0.04 | 0.00 | 96 | 1017.9 |
| 20260508110021 | 40 | 229 | 0.0 | 0.0 | 0.00 | 0.04 | 0.00 | 96 | 1017.6 |
| 20260508104532 | 40 | 229 | 0.0 | 0.0 | 0.00 | 0.05 | 0.00 | 96 | 1017.5 |
| 20260508103023 | 40 | 229 | 0.0 | 0.0 | 0.00 | 0.05 | 0.00 | 96 | 1017.2 |
| 20260508101517 | 40 | 229 | 0.0 | 0.0 | 0.00 | 0.05 | 0.00 | 96 | 1017.0 |
| 20260508100017 | 40 | 229 | 0.0 | 0.0 | 0.00 | 0.05 | 0.00 | 95 | 1016.9 |
| 20260508094513 | 40 | 229 | 0.0 | 0.0 | 0.00 | 0.06 | 0.00 | 95 | 1016.8 |
| 20260508093012 | 41 | 229 | 0.0 | 0.0 | 0.00 | 0.06 | 0.00 | 96 | 1016.8 |
| 20260508091510 | 41 | 229 | 0.0 | 0.0 | 0.00 | 0.06 | 0.00 | 96 | 1016.8 |
| 20260508090010 | 42 | 229 | 0.0 | 0.0 | 0.00 | 0.06 | 0.00 | 95 | 1016.7 |
| 20260508084506 | 42 | 229 | 0.0 | 0.0 | 0.00 | 0.06 | 0.00 | 95 | 1016.5 |
| 20260508083006 | 43 | 229 | 0.0 | 0.0 | 0.00 | 0.06 | 0.00 | 96 | 1016.4 |
| 20260508081506 | 43 | 229 | 0.0 | 0.0 | 0.00 | 0.06 | 0.00 | 96 | 1016.4 |
| 20260508080111 | 44 | 229 | 0.0 | 0.0 | 0.00 | 0.06 | 0.00 | 96 | 1016.2 |
| 20260508074538 | 44 | 229 | 0.0 | 0.0 | 0.00 | 0.07 | 0.00 | 96 | 1016.3 |
| 20260508073035 | 44 | 229 | 0.0 | 0.0 | 0.00 | 0.07 | 0.00 | 96 | 1016.3 |
| 20260508071534 | 44 | 229 | 0.0 | 0.0 | 0.00 | 0.07 | 0.00 | 95 | 1016.3 |
| 20260508070056 | 45 | 229 | 0.0 | 0.0 | 0.00 | 0.07 | 0.00 | 96 | 1016.4 |
| 20260508064534 | 45 | 229 | 0.0 | 0.0 | 0.00 | 0.12 | 0.00 | 96 | 1016.4 |
| 20260508063030 | 46 | 229 | 0.0 | 0.0 | 0.00 | 0.12 | 0.00 | 96 | 1016.4 |
| 20260508061527 | 46 | 229 | 0.0 | 0.0 | 0.00 | 0.12 | 0.00 | 96 | 1016.2 |
| 20260508060025 | 47 | 229 | 0.0 | 0.0 | 0.00 | 0.12 | 0.00 | 96 | 1016.4 |
| 20260508054523 | 47 | 229 | 0.0 | 0.0 | 0.00 | 0.12 | 0.00 | 96 | 1016.4 |
| 20260508053021 | 47 | 229 | 0.0 | 0.0 | 0.00 | 0.12 | 0.00 | 96 | 1016.4 |
| 20260508051520 | 48 | 229 | 0.0 | 0.0 | 0.00 | 0.12 | 0.00 | 96 | 1016.2 |
| 20260508050023 | 48 | 229 | 0.0 | 0.0 | 0.00 | 0.12 | 0.00 | 96 | 1016.4 |
| 20260508044507 | 48 | 229 | 0.0 | 0.0 | 0.00 | 0.12 | 0.00 | 96 | 1016.2 |
| 20260508043103 | 47 | 229 | 0.0 | 0.0 | 0.00 | 0.12 | 0.00 | 95 | 1016.0 |
| 20260508041535 | 48 | 229 | 0.0 | 0.0 | 0.00 | 0.12 | 0.00 | 95 | 1015.7 |
| 20260508040031 | 48 | 229 | 0.0 | 0.0 | 0.00 | 0.12 | 0.00 | 96 | 1015.4 |
| 20260508034529 | 48 | 229 | 0.0 | 0.0 | 0.00 | 0.12 | 0.12 | 95 | 1015.4 |
| 20260508033031 | 49 | 229 | 0.0 | 0.0 | 0.00 | 0.12 | 0.12 | 95 | 1015.6 |
| 20260508031526 | 49 | 229 | 0.0 | 0.0 | 0.00 | 0.12 | 0.12 | 95 | 1015.6 |
| 20260508030033 | 49 | 229 | 0.0 | 0.0 | 0.00 | 0.12 | 0.12 | 94 | 1015.4 |
| 20260508024523 | 50 | 229 | 0.0 | 0.0 | 0.00 | 0.12 | 0.12 | 94 | 1015.0 |
| 20260508023020 | 50 | 229 | 0.0 | 0.0 | 0.00 | 0.12 | 0.12 | 94 | 1014.9 |
| 20260508021518 | 50 | 229 | 0.0 | 0.0 | 0.00 | 0.12 | 0.12 | 94 | 1014.8 |
| 20260508020015 | 50 | 231 | 0.0 | 0.0 | 0.00 | 0.12 | 0.12 | 93 | 1014.6 |
| 20260508014514 | 51 | 255 | 0.0 | 0.9 | 0.00 | 0.15 | 0.12 | 93 | 1014.3 |
| 20260508013011 | 51 | 155 | 0.0 | 0.0 | 0.00 | 0.15 | 0.12 | 93 | 1014.0 |
| 20260508011508 | 52 | 155 | 0.0 | 0.0 | 0.00 | 0.15 | 0.12 | 91 | 1013.6 |
| 20260508010006 | 52 | 155 | 0.0 | 0.0 | 0.00 | 0.15 | 0.12 | 91 | 1013.5 |
| 20260508004507 | 53 | 155 | 0.0 | 1.7 | 0.00 | 0.24 | 0.12 | 90 | 1013.3 |
| 20260508003056 | 53 | 193 | 0.0 | 1.7 | 0.00 | 0.24 | 0.12 | 89 | 1013.2 |
| 20260508001515 | 54 | 120 | 0.0 | 2.6 | 0.00 | 0.24 | 0.12 | 88 | 1013.0 |
| 20260508000014 | 55 | 109 | 0.0 | 2.6 | 0.00 | 0.24 | 0.12 | 87 | 1013.1 |
| 20260507234514 | 55 | 207 | 0.0 | 1.7 | 0.00 | 0.24 | 0.12 | 86 | 1013.1 |
| 20260507233012 | 56 | 203 | 0.0 | 3.5 | 0.00 | 0.24 | 0.12 | 85 | 1013.1 |
| 20260507231517 | 56 | 123 | 0.0 | 4.3 | 0.00 | 0.24 | 0.12 | 84 | 1013.2 |
| 20260507230010 | 57 | 140 | 0.0 | 2.6 | 0.00 | 0.24 | 0.12 | 83 | 1013.2 |
| 20260507224510 | 57 | 118 | 0.9 | 2.6 | 0.00 | 0.24 | 0.12 | 82 | 1013.2 |
| 20260507223009 | 57 | 126 | 0.0 | 1.7 | 0.00 | 0.24 | 0.12 | 82 | 1013.3 |
| 20260507221509 | 57 | 212 | 0.0 | 0.0 | 0.00 | 0.24 | 0.12 | 82 | 1013.1 |
| 20260507220009 | 57 | 215 | 0.0 | 1.7 | 0.00 | 0.24 | 0.12 | 82 | 1013.1 |
| 20260507214507 | 57 | 120 | 0.0 | 1.7 | 0.00 | 0.24 | 0.12 | 80 | 1013.0 |
| 20260507213010 | 58 | 191 | 0.0 | 0.0 | 0.00 | 0.24 | 0.12 | 79 | 1012.6 |
| 20260507211507 | 59 | 189 | 0.0 | 0.0 | 0.00 | 0.24 | 0.12 | 78 | 1012.6 |
| 20260507210010 | 59 | 131 | 0.0 | 0.9 | 0.00 | 0.24 | 0.12 | 78 | 1012.5 |
| 20260507204508 | 58 | 184 | 0.0 | 1.7 | 0.00 | 0.24 | 0.12 | 83 | 1012.5 |